Regional Weather Roundup
Issued by NWS

Home | Current Version | Previous Version | Text Only | Print | Product List | Glossary Off
Versions: 1 2 3 4 5 6 7 8 9 10 11 12 13 14 15 16 17 18 19 20 21 22 23 24 25 26 27 28 29 30 31 32 33 34 35 36 37 38 39 40 41 42 43 44 45 46 47 48 49 50

000
ASUS43 KIND 032259
RWRIN

WEATHER ROUNDUP FOR INDIANA
NATIONAL WEATHER SERVICE INDIANAPOLIS IN
600 PM EST TUE MAR 03 2015

NOTE: "FAIR" INDICATES FEW OR NO CLOUDS BELOW 12,000 FEET WITH NO
SIGNIFICANT WEATHER AND/OR OBSTRUCTIONS TO VISIBILITY.

* - STATION DOES NOT REPORT WEATHER SUCH AS PRECIPITATION OR FOG.

+ - STATION NOT QUALITY CONTROLLED BY THE NATIONAL WEATHER SERVICE.
    USE DATA WITH CAUTION...ESPECIALLY DEWPOINT AND RELATIVE
    HUMIDITY OBSERVATIONS.

INZ001>003-010>013-019-020-040000-
NORTHWEST INDIANA

CITY           SKY/WX    TMP DP  RH WIND       PRES   REMARKS
GARY /AIRPORT/ CLOUDY    37  28  70 W17G35    29.72R
MONTICELLO +   CLOUDY    36  34  94 W15G21    29.75R
VALPARAISO     NOT AVBL

$$

LMZ046-743>745-040000-
SOUTHERN LAKE MICHIGAN

STATION/POSITION TIME  TEMP WIND        PRES
                       AIR  DIR/SP/G
                 (UTC) (F)  (DEG/KT/KT) (MB)
MICHIGAN CITY    2200   34  230/ 17/ 21   N/A

$$

INZ004-005-014>016-021>024-040000-
NORTH CENTRAL INDIANA

CITY           SKY/WX    TMP DP  RH WIND       PRES   REMARKS
ELKHART        CLOUDY    36  30  80 W20       29.69R
GOSHEN         CLOUDY    36  32  85 W18       29.68R FOG
SOUTH BEND     CLOUDY    36  32  85 W23G31    29.71R

$$

INZ006>009-017-018-025>027-040000-
NORTHEAST INDIANA

CITY           SKY/WX    TMP DP  RH WIND       PRES   REMARKS
ANGOLA *+      CLOUDY    36  28  75 W13       29.63R
FORT WAYNE     CLOUDY    37  35  92 W22       29.69R FOG

$$

INZ028-029-035-036-043>045-051>053-040000-
WEST CENTRAL INDIANA

CITY           SKY/WX    TMP DP  RH WIND       PRES   REMARKS
CRAWFORDSVL +  CLOUDY    37  33  85 W14G20    29.75F
GREENCASTLE +  LGT RAIN  39  36  87 W9G17     29.79S
LAFAYETTE      CLOUDY    37  35  92 W13G21    29.75R
TERRE HAUTE    LGT RAIN  39  38  96 W9        29.81S FOG

$$

INZ030>032-037>040-046>048-054>057-064-065-040000-
CENTRAL INDIANA

CITY           SKY/WX    TMP DP  RH WIND       PRES   REMARKS
COLUMBUS       LGT RAIN  43  41  93 SW12      29.79R FOG
FRANKFORT +    CLOUDY    37  37 100 SW16      29.78R FOG
GREENWOOD *+   CLOUDY    41  39  93 W20G28    29.78R
INDIANAPOLIS   LGT RAIN  39  37  92 W18G26    29.76R
-EAGLE CREEK   LGT RAIN  40  39  97 W9G24     29.76R
KOKOMO *+      CLOUDY    37  36  93 W24G30    29.74S
MT COMFORT *+  CLOUDY    39 N/A N/A W15G22    29.78R
SHELBYVILLE    CLOUDY    44  41  89 W17       29.78R FOG

$$

INZ033-034-041-042-049-050-058-059-040000-
EAST CENTRAL INDIANA

CITY           SKY/WX    TMP DP  RH WIND       PRES   REMARKS
MUNCIE         LGT RAIN  40  38  93 W15       29.75R FOG

$$

INZ060-061-067>069-081>083-085>088-040000-
SOUTHWEST INDIANA

CITY           SKY/WX    TMP DP  RH WIND       PRES   REMARKS
EVANSVILLE     LGT RAIN  51  49  92 W10       29.85R FOG
HUNTINGBURG *+ CLOUDY    50  46  87 W10       29.84R

$$

INZ062-063-066-070>080-084-089>092-040000-
SOUTH CENTRAL AND SOUTHEAST INDIANA

CITY           SKY/WX    TMP DP  RH WIND       PRES   REMARKS
BLOOMINGTON    LGT RAIN  44  43  96 W12G23    29.79R VSB 1/2
SEYMOUR +      CLOUDY    46  46 100 W16       29.79R

$$



USA.gov is the U.S. government's official web portal to all federal, state and local government web resources and services.